COSMOS 1275 DEB, 13485

Orbit data source: Space-Track

COSMOS 1275 DEB, 13485 is space debris in LEO originally from a launch on Thu, 04 Jun 1981 UTC launched from the Plesetsk Missile And Space Complex (PKMTR). Debris objects in space refer to the collection of defunct objects orbiting the Earth. Examples of debris include non-operational satellites, rocket bodies, and fragments generated from explosions, collisions, or faulty payload assembly.

Loading next visibility...
Identifier
13485, 1981-053GF
Orbit
LEO
Country
Flag of CISCIS
Related business
Manufacturer
Unknown
Mission
Spacecraft
Bus & Motor
Unknown
Mass
Unknown
Launch date (UTC)
1981-06-04 (45 years ago)
Launch vehicle
Unknown
Launch site
Plesetsk Missile And Space Complex (PKMTR)
Object type
Payload
Rocket body
Debris
Shape & HBR
Unknown shape, 0.2 m
Radar Cross Section
Medium (>0.1 m² and <1 m²)

Expand to show TLE details & history
Last TLE update: 2 days ago

TLE from 2 days ago
0 COSMOS 1275 DEB
1 13485U 81053GF  26171.44192644  .00000140  00000-0  11936-3 0  9997
2 13485  82.9409 163.0071 0065238 305.9540 207.2082 13.79666216214301
Epoch: 2026-06-20T10:36Z
TLE epoch observation values (Epoch: 2026-06-20T10:36:22.444Z)
Latitude
26.99095°
Longitude
-88.34028°
Altitude
1,011.043 km
Speed
7.327 km/s
True Right ascension
22h 37m 38s
True Declination
26° 51' 25"
Sunlit
Object was in daylight at epoch
Visualization orbit readout
Latitude
Unknown
Longitude
Unknown
Altitude
Unknown
Speed
Unknown
Apparent Right ascension
Unknown
Apparent Declination
Unknown
Sunlit
N/A
Visualization observer readout
Local Sidereal Time
16:05:32
Azimuth
Unknown
Elevation
Unknown
Doppler factor
Unknown
Orbital elements
Apogee altitude
1,010.1 km
Perigee altitude
914.326 km
Semi-major axis
7,340.35 km
Eccentricity
0.00652
Inclination
82.9409°
RAAN
163.0071°
Arg. of periapsis
305.954°
True anomaly
206.86885°
Mean anomaly
207.2082°
Eccentric anomaly
207.03828°
Mean motion
3.45118 °/min
Orbital period
104.31 mins
BSTAR
0.00011936
Loading maneuver chart data...
Computing Atmospheric mass density...
Loading historical data...
Loading historical data...
Loading historical data...
Loading historical data...
Loading historical data...
Loading historical data...
Loading historical data...

Documentation

Showing up to 5 results
|